Regional Weather Roundup
Issued by NWS

Home | Current Version | Previous Version | Text Only | Print | Product List | Glossary On
Versions: 1 2 3 4 5 6 7 8 9 10 11 12 13 14 15 16 17 18 19 20 21 22 23 24 25 26 27 28 29 30 31 32 33 34 35 36 37 38 39 40 41 42 43 44 45 46 47 48 49 50
000
ASUS44 KFWD 191010
RWRTX
NORTH TEXAS HOURLY WEATHER ROUNDUP
NATIONAL WEATHER SERVICE FORT WORTH TX
500 AM CDT THU APR 19 2018

NOTE: "FAIR" INDICATES FEW OR NO CLOUDS BELOW 12,000 FEET WITH NO
SIGNIFICANT WEATHER AND/OR OBSTRUCTIONS TO VISIBILITY.

TXZ118-119-191100-
DALLAS/FORT WORTH METROPLEX

CITY           SKY/WX    TMP DP  RH WIND       PRES   REMARKS
DFW AIRPORT    FAIR      52  33  48 N9        30.26R
DALLAS LOVE    FAIR      58  31  35 NE8       30.26R
FTW MEACHAM    FAIR      54  35  48 CALM      30.28R
DAL-EXECUTIVE  FAIR      57  30  35 NE9       30.26R
FTW-ALLIANCE   FAIR      46  37  71 CALM      30.27R
FTW-NAS-JRB    FAIR      54  36  50 NW3       30.29R
FTW-SPINKS     FAIR      49  33  54 N3        30.29R
ARLINGTON      FAIR      56  30  37 NE7       30.27R
GRAND PRAIRIE  FAIR      56  29  35 N6        30.29R
ADDISON        FAIR      55  27  34 NE6       30.28R
MESQUITE       FAIR      53  33  46 N7        30.27R
LANCASTER      FAIR      55  32  40 N6        30.27R
$$

TXZ091>094-102>105-117-120-121-131>134-191100-
NORTH CENTRAL TEXAS

CITY           SKY/WX    TMP DP  RH WIND       PRES   REMARKS
SHRMAN/DENISON FAIR      46  35  66 CALM      30.28R
GAINESVILLE    FAIR      44  32  62 CALM      30.31R
BOWIE          FAIR      46  31  56 CALM      30.29R
BRIDGEPORT     FAIR      39  33  80 CALM      30.31R
DECATUR        FAIR      49  31  48 CALM      30.28R
DENTON         FAIR      49  34  56 NW6       30.28R
MCKINNEY       FAIR      50  34  54 N6        30.26R
BONHAM         FAIR      45  34  65 W3        30.27R
GREENVILLE     FAIR      50  37  62 CALM      30.27R
ROCKWALL       FAIR      50  36  58 MISG      30.27R
TERRELL        FAIR      48  36  63 N7        30.26R
WAXAHACHIE     FAIR      54  34  46 N6        30.28R
CLEBURNE       FAIR      52  32  46 NE8       30.29R
GRANBURY       FAIR      55  34  45 CALM      30.30R
$$

TXZ083>090-098>101-113>116-127>130-139>142-154-155-191100-
WESTERN NORTH TEXAS

CITY           SKY/WX    TMP DP  RH WIND       PRES   REMARKS
WICHITA FALLS  FAIR      45  32  60 CALM      30.31R
WF-KICKAPOO    FAIR      49  32  52 CALM      30.33R
VERNON         FAIR      47  28  48 CALM      30.33R
ABILENE        FAIR      47  29  49 NE5       30.29R
ABILENE-DYESS  CLEAR     42  21  42 CALM      30.28R
GRAHAM           N/A     47  32  55 CALM      30.29R
BRECKENRIDGE   FAIR      44  32  63 E3        30.30R
CISCO          FAIR      50  28  43 NE6       30.28S
EASTLAND       FAIR      47  30  51 NE6       30.29R
MINERAL WELLS  FAIR      49  31  49 N5        30.28R
STEPHENVILLE   FAIR      49  32  51 NE6       30.30R
COMANCHE       FAIR      46  33  61 N3        30.28R
BROWNWOOD      MOCLDY    45  30  57 NE5       30.28R
COLEMAN        FAIR      45  30  56 CALM      30.27R
BRADY          FAIR      54  27  35 NE8       30.26R
$$

TXZ143>147-156>162-174-175-191100-
CENTRAL TEXAS

CITY           SKY/WX    TMP DP  RH WIND       PRES   REMARKS
WACO           FAIR      53  35  50 NE13      30.25R
WACO-MCGREGOR  FAIR      51  38  60 N8        30.26R
HILLSBORO      FAIR      54  35  47 NE9       30.26R
CORSICANA      FAIR      50  38  63 N6        30.26R
MEXIA          FAIR      54  37  54 N7        30.24R
HEARNE         FAIR      50  38  64 N6        30.22R
CAMERON        FAIR      51  40  66 N6        30.23R
KILLEEN        CLEAR     52  34  50 NW7       30.25R
KILLEEN-SKYLRK FAIR      56  35  45 N12       30.25R
FORT HOOD      FAIR      56  34  42 NE13      30.21R
GATESVILLE     FAIR      54  34  47 NE8       30.27R
HAMILTON       FAIR      48  35  59 NE8       30.28R
LAMPASAS       FAIR      53  33  46 N6        30.23R
$$

TXZ095>097-106>112-122>126-135>138-148>153-164>167-191100-
EAST TEXAS

CITY           SKY/WX    TMP DP  RH WIND       PRES   REMARKS
PARIS          FAIR      47  34  60 N7        30.26R
SULPHUR SPRNGS FAIR      53  38  57 N5        30.28R
MOUNT PLEASANT FAIR      51  35  53 NW5       30.26R
GILMER         FAIR      52  35  51 NW5       30.24R
MINEOLA        FAIR      52  34  50 CALM      30.25R
TYLER          FAIR      55  31  39 N9        30.24R
LONGVIEW       FAIR      53  38  56 N7        30.22R
MARSHALL       FAIR      50  35  57 N6        30.24R
ATHENS         FAIR      54  36  50 N3        30.24R
PALESTINE      FAIR      57  35  43 N8        30.24R
HENDERSON      FAIR      54  35  49 N8        30.23R
CENTER         FAIR      52  37  56 N6        30.22R
NACOGDOCHES      N/A     54  37  52 N6        30.22R
LUFKIN         FAIR      58  37  45 N8        30.20R
$$

SUPPLEMENTAL OBSERVATIONS (NWS FORT WORTH AREA)

CITY           SKY/WX    TMP DP  RH WIND       PRES   REMARKS
CADDO GRASSLND   N/A     41  37  87 CALM        N/A
LBJ GRASSLAND    N/A     52  30  43 N5          N/A
POSSUM KINGDOM   N/A     52  32  46 NE7         N/A
GRANBURY         N/A     54  32  43 NE2         N/A
MCGREGOR         N/A     54  36  50 NE6G14      N/A
TEMPLE           N/A     59  34  38 NE17G24     N/A
PALESTINE        N/A     55  36  47 VRB6        N/A
$$

SUPPLEMENTAL OBSERVATIONS (NWS NORMAN AREA)

CITY           SKY/WX    TMP DP  RH WIND       PRES   REMARKS
GOODLETT         N/A     42  24  48 N6        30.32S WCI  38
ODELL            N/A     39  29  65 N2        30.34R
CROWELL          N/A     45  27  48 NE5       30.33S
KNOX CITY        N/A     44  26  49 NE2       30.32R
SEYMOUR          N/A     44  30  59 NE6       30.32S
MILLERS CREEK    N/A     46  30  53 NE3         N/A
$$

SUPPLEMENTAL OBSERVATIONS (NWS SAN ANGELO AREA)

CITY           SKY/WX    TMP DP  RH WIND       PRES   REMARKS
WEINERT          N/A     51  28  40 E10       30.31S
HASKELL          N/A     47  27  46 E8        30.30S
THROCKMORTON     N/A     44  31  59 NE3       30.32S
STAMFORD         N/A     49  27  42 E8        30.31R
CLYDE            N/A     48  28  45 NE12      30.31R
HAMBY            N/A     48  30  49 E7          N/A
IVIE RESERVOIR   N/A     46  28  49 E1          N/A
COLORADO BEND    N/A     48  32  53 CALM        N/A
$$

SUPPLEMENTAL OBSERVATIONS (NWS SHREVEPORT AREA)

CITY           SKY/WX    TMP DP  RH WIND       PRES   REMARKS
TEXARKANA        N/A     52  32  46 N1G10       N/A
LINDEN           N/A     52  32  46 NW2         N/A
LUFKIN           N/A     59  34  38 MISG        N/A
N SABINE NF      N/A     46  45  93 MISG        N/A
$$

SUPPLEMENTAL OBSERVATIONS ARE A COLLECTION OF AUTOMATED INSTRUMENTS
THAT ARE MAINTAINED BY A VARIETY OF FEDERAL AND STATE AGENCIES.
CERTAIN ELEMENTS...SUCH AS HUMIDITY VALUES AND SUSTAINED WIND
SPEEDS...MAY BE APPROXIMATED.





USA.gov is the U.S. government's official web portal to all federal, state and local government web resources and services.